This is the latest recevied weather packets stored in our database for station/object SA3PJN-WX. If no packets are shown the sender has not sent any weather packets the latest 10 day(s).
| Time | Temp. | Humidity | Pressure | Rain* | Wind** | Luminosity | Snow |
|---|---|---|---|---|---|---|---|
| 1777829442 | 6.11° C | 48% | 962.4 hPa | - | - | - | - |
| 1777829142 | 6.11° C | 47% | 962.5 hPa | - | - | - | - |
| 1777828842 | 5.56° C | 49% | 962.5 hPa | - | - | - | - |
| 1777828512 | 6.11° C | 47% | 962.5 hPa | - | - | - | - |
| 1777828212 | 6.11° C | 45% | 962.5 hPa | - | - | - | - |
| 1777827882 | 6.67° C | 44% | 963 hPa | - | - | - | - |
| 1777827582 | 6.11° C | 44% | 963 hPa | - | - | - | - |
| 1777827252 | 6.67° C | 45% | 963 hPa | - | - | - | - |
| 1777826952 | 7.78° C | 44% | 963 hPa | - | - | - | - |
| 1777826652 | 7.78° C | 45% | 963 hPa | - | - | - | - |
| 1777826352 | 7.78° C | 45% | 963.2 hPa | - | - | - | - |
| 1777826022 | 7.22° C | 44% | 963.2 hPa | - | - | - | - |
| 1777825722 | 7.78° C | 46% | 963.1 hPa | - | - | - | - |
| 1777825422 | 7.78° C | 45% | 963.2 hPa | - | - | - | - |
| 1777825122 | 7.78° C | 44% | 963.4 hPa | - | - | - | - |
| 1777824822 | 7.78° C | 44% | 963.5 hPa | - | - | - | - |
| 1777824522 | 7.78° C | 45% | 963.5 hPa | - | - | - | - |
| 1777824222 | 7.78° C | 44% | 963.5 hPa | - | - | - | - |
| 1777823922 | 7.78° C | 44% | 963.6 hPa | - | - | - | - |
| 1777823622 | 8.33° C | 44% | 963.6 hPa | - | - | - | - |
| 1777823322 | 8.33° C | 43% | 964 hPa | - | - | - | - |
| 1777823022 | 8.33° C | 45% | 964 hPa | - | - | - | - |
| 1777822722 | 8.33° C | 45% | 964 hPa | - | - | - | - |
| 1777822422 | 8.33° C | 45% | 964 hPa | - | - | - | - |
| 1777822122 | 8.33° C | 44% | 964 hPa | - | - | - | - |
* Rain since midnight (hover to see other rain measurements)
** Current wind speed in m/s (hover to see current wind gust speed)